Regional Weather Roundup
Issued by NWS Spokane, WA

Home | Current Version | Previous Version | Text Only | Print | Product List | Glossary On
Versions: 1 2 3 4 5 6 7 8 9 10 11 12 13 14 15 16 17 18 19 20 21 22 23 24 25 26 27 28 29 30 31 32 33 34 35 36 37 38 39 40 41 42 43 44 45 46 47 48 49 50
590
NZUS01 KOTX 251225
RWROTX

Eastern Washington/Northern Idaho Roundup
National Weather Service, Spokane WA
500 AM PDT TUE APR 25 2017

Note: "fair" indicated few or no clouds below 12,000 feet with no
significant weather and/or obstructions to visibility.

...Northeast Washington and Northern Idaho Panhandle...

CITY           SKY/WX    TMP DP  RH WIND       PRES   REMARKS
Spokane Intl   CLOUDY    42  40  92 SW12      29.83R
Spokane Downto CLOUDY    45  42  89 CALM      29.84R
Coeur d Alene  CLOUDY    44  41  89 S5        29.83R
Deer Park      MOCLDY    33  30  88 SE5       29.83R WCI  29
Sandpoint      LGT RAIN  41  41 100 S5        29.82R
Bonners Ferry  CLOUDY    41  37  87 CALM      29.80R

...Southeast Washington and southern Idaho Panhandle...

CITY           SKY/WX    TMP DP  RH WIND       PRES   REMARKS
Walla Walla    CLOUDY    47  42  83 S14       29.92R
Pullman/Moscow CLOUDY    41  38  89 W12G17    29.88R
Lewiston       CLOUDY    48  45  89 CALM      29.87R
Lowell           N/A     45  42  89 S5        29.88R
Grangeville    CLOUDY    37  36  93 SW7       29.85R

...Columbia Basin...

CITY           SKY/WX    TMP DP  RH WIND       PRES   REMARKS
Ephrata        CLEAR     45  36  70 N8        29.84R
Moses Lake     CLEAR     37  35  92 S6        29.85R
Pasco          PTCLDY    47  40  76 SW8       29.90R
Richland       SUNNY     42  38  85 CALM      29.89S
Hermiston      MOCLDY    47  42  83 SW14      29.90R
Pendleton      CLOUDY    45  38  76 W16G24    29.90R

...East Slopes Cascades...

CITY           SKY/WX    TMP DP  RH WIND       PRES   REMARKS
The Dalles     CLEAR     47  40  76 W13       29.96F
Yakima         PTCLDY    44  34  67 SE3       29.89R
Ellensburg     CLEAR     43  34  70 NW14      29.87S
Stampede Pass  FOG       33  33 100 VRB3      29.88F VSB 1/2
Wenatchee      CLEAR     46  34  62 NW13      29.85S
Omak           CLEAR     39  34  82 NW6       29.84S
Chelan           N/A     46  34  61 MISG        N/A
Sunnyside      SUNNY     35  33  93 N3        29.90R

...Southern British Columbia...

CITY           SKY/WX    TMP DP  RH WIND       PRES   REMARKS
Penticton      MOCLDY    37  36  93 NE2       29.85S
Cranbrook      PTCLDY    37  32  81 NW2       29.75R
Osoyoos          N/A     39  37  93 NE1         N/A
Creston          N/A     41  37  87 SW2         N/A

...Western Montana...

CITY           SKY/WX    TMP DP  RH WIND       PRES   REMARKS
Kalispell      CLOUDY    40  40 100 SE5       29.78R
Missoula       PTCLDY    38  36  92 N3        29.82R

...Neighboring Cities...

CITY           SKY/WX    TMP DP  RH WIND       PRES   REMARKS
Seattle        MOCLDY    47  43  86 S12       29.95F
Portland       CLOUDY    47  44  90 CALM      30.00F
Boise          CLOUDY    43  36  76 NW12      29.86R
Great Falls    CLOUDY    40  38  93 N5        29.75R
Calgary        LGT SNOW  28  27  93 N14       29.82S VSB 1   WCI  17



USA.gov is the U.S. government's official web portal to all federal, state and local government web resources and services.